Overview Statistics Trail Chart Weather Telemetry Raw packets
 

This is the latest recevied weather packets stored in our database for station/object SV1JSO-13. If no packets are shown the sender has not sent any weather packets the latest 10 day(s).

<< 100 101 102 103 104 105 106 >>
Time Temp. Humidity Pressure Rain* Wind** Luminosity Snow
1787910600 31.11° C 57% 1008.8 hPa 0 mm - 710 W/m² -
1787910300 31.67° C 52% 1009 hPa 0 mm - 707 W/m² -
1787910000 31.11° C 51% 1008.9 hPa 0 mm - 700 W/m² -
1787909700 31.11° C 51% 1008.9 hPa 0 mm - 694 W/m² -
1787909400 30.56° C 53% 1008.9 hPa 0 mm - 690 W/m² -
1787909100 31.11° C 50% 1008.9 hPa 0 mm - 686 W/m² -
1787908800 32.22° C 44% 1009 hPa 0 mm - 680 W/m² -
1787908500 31.67° C 42% 1008.9 hPa 0 mm - 676 W/m² -
1787908200 31.67° C 42% 1009.1 hPa 0 mm - 673 W/m² -
1787907900 32.22° C 41% 1009.1 hPa 0 mm - 664 W/m² -
1787907600 32.22° C 41% 1009.1 hPa 0 mm - 652 W/m² -
1787907300 32.22° C 41% 1009.1 hPa 0 mm - 649 W/m² -
1787907000 31.67° C 41% 1009.1 hPa 0 mm - 642 W/m² -
1787906700 31.11° C 40% 1009.2 hPa 0 mm - 637 W/m² -
1787906400 31.11° C 40% 1009.2 hPa 0 mm - 628 W/m² -
1787906100 31.67° C 42% 1009.2 hPa 0 mm - 618 W/m² -
1787905800 31.11° C 45% 1009.2 hPa 0 mm - 608 W/m² -
1787905500 30.56° C 46% 1009.1 hPa 0 mm - 599 W/m² -
1787905200 31.11° C 46% 1009.2 hPa 0 mm - 585 W/m² -
1787904900 31.11° C 44% 1009.1 hPa 0 mm - 574 W/m² -
1787904601 31.67° C 43% 1009.2 hPa 0 mm - 564 W/m² -
1787904300 31.11° C 48% 1009.1 hPa 0 mm - 550 W/m² -
1787904000 30.56° C 45% 1009.1 hPa 0 mm - 543 W/m² -
1787903700 30.56° C 47% 1009 hPa 0 mm - 531 W/m² -
1787903400 30.56° C 46% 1008.9 hPa 0 mm - 517 W/m² -

* Rain latest hour (hover to see other rain measurements)
** Current wind speed in m/s (hover to see current wind gust speed)